sat.trackr.live / text

‹ back to catalog

STARLINK-36640

NORAD 67600 · 2026-018M

PAYLOAD ACTIVE UNKNOWN

§ Identity

Operator
Country
US
Launch date
2026-01-29
Launch site
AFWTR
Launch vehicle
Mass (kg)
RCS (m²)

Purposes: comms

External: N2YO · Heavens-Above · Gunter

§ Orbital elements

Epoch: 2026-09-19T04:01:54.814656Z

Period
93.91 min
Inclination
97.2858°
Eccentricity
0.0001357
Mean motion
15.33458564 rev/d
Perigee alt
464.6 km
Apogee alt
466.4 km
Semi-major
6,843.6 km
B*
5.9422e-4
RAAN
325.6014°
Arg perigee
112.9196°
Mean anomaly
247.2190°
Rev number
3,698

§ Raw data

STARLINK-366401 67600U 26018M   26262.16799554  .00019165  00000+0  59422-3 0  99962 67600  97.2858 325.6014 0001357 112.9196 247.2190 15.33458564 36981

JSON: /api/v1/satellites/67600 · /tle

For live sub-satellite position, see the globe view (requires WebGL).

§ Visibility from observer

Set your observer location to see the next 7 days of passes ≥ 10°. The values pass through the URL so the page stays shareable.

No JS? Fill the form by hand. The geolocation button needs JavaScript.